Terminal Aerodrome Forecast
Issued by NWS Twin Cities, MN

Home | Current Version | Previous Version | Graphics & Text | Print | Product List | Glossary On
Versions: 1 2 3 4 5 6 7 8 9 10 11 12 13 14 15 16 17 18 19 20 21 22 23 24 25 26 27 28 29 30
000
FTUS43 KMPX 200200 AAA
TAFMSP
TAF AMD
KMSP 200217Z 2002/2106 28008G16KT P6SM SCT050
      TEMPO 2003/2005 BKN050
     FM200500 27008KT P6SM FEW040
     FM201500 30011G18KT P6SM SCT040=

USA.gov is the U.S. government's official web portal to all federal, state and local government web resources and services.